Hourly Data Report for June 18, 2021

ST-JOVITE
QUEBEC
Current Station Operator: ECCC - MSC

46°04'49.000" N
74°33'21.000" W
238.50 m
703GDKB
71376
WJT

Download Data

Hourly Data (June 2021)
Hourly Data Report for June 18, 2021
TIME
LST
Temp Definition
°C
Dew Point Definition
°C
Rel Hum Definition
%
Precip. Amount Definition
mm

Wind Dir Definition
10's deg

Wind Spd Definition
km/h
Visibility Definition
km
Stn Press Definition
kPa
Hmdx Definition


Wind Chill Definition


Weather Definition


00:00 12.9 10.1 83 0.0 0 1   98.37     LegendNANA
01:00 12.3 9.6 83 0.0   0   98.35     LegendNANA
02:00 11.3 9.0 86 0.0 0 1   98.36     LegendNANA
03:00 10.2 8.7 90 0.0 3 1   98.35     LegendNANA
04:00 9.0 7.8 92 0.0   0   98.31     LegendNANA
05:00 8.6 7.8 95 0.0   0   98.30     LegendNANA
06:00 10.8 9.3 91 0.0   0   98.32     LegendNANA
07:00 13.8 10.4 80 0.0 21 2   98.27     LegendNANA
08:00 16.6 10.3 66 0.0 15 1   98.20     LegendNANA
09:00 19.8 11.9 61 0.0 21 5   98.16     LegendNANA
10:00 19.8 10.3 54 0.0 20 5   98.09     LegendNANA
11:00 18.5 11.5 64 0.0 21 7   98.13     LegendNANA
12:00 16.5 13.3 81 0.0 21 2   98.11     LegendNANA
13:00 15.5 14.7 95 0.0 0 1   98.12     LegendNANA
14:00 15.2 14.6 96 0.0 6 2   98.02     LegendNANA
15:00 15.8 15.0 95 0.0 20 4   97.95     LegendNANA
16:00 16.1 15.6 97 4.0 19 5   97.90     LegendNANA
17:00 16.2 15.8 98 0.0 20 5   97.81     LegendNANA
18:00 16.2 15.9 98 1.0 21 5   97.76     LegendNANA
19:00 16.4 16.2 99 0.0 20 5   97.75     LegendNANA
20:00 16.3 16.0 98 0.0 22 7   97.73     LegendNANA
21:00 16.1 15.9 99 2.0 20 3   97.71     LegendNANA
22:00 16.1 15.9 99 0.0 22 4   97.64     LegendNANA
23:00 16.3 16.1 99 0.0 22 3   97.58     LegendNANA

Notes on Data Quality.

Legend

  • E = Estimated
  • M = Missing
  • NA = Not Available*
  • [empty] = Indicates an unobserved value
Date modified: